sat.trackr.live / text

‹ back to catalog

STARLINK-11443 [DTC]

NORAD 62512 · 2025-004B

PAYLOAD ACTIVE UNKNOWN

§ Identity

Operator
Country
US
Launch date
2025-01-08
Launch site
AFETR
Launch vehicle
Mass (kg)
RCS (m²)

Purposes: comms

External: N2YO · Heavens-Above · Gunter

§ Orbital elements

Epoch: 2026-09-21T11:04:02.578080Z

Period
91.67 min
Inclination
43.0001°
Eccentricity
0.0001112
Mean motion
15.70863567 rev/d
Perigee alt
355.7 km
Apogee alt
357.2 km
Semi-major
6,734.6 km
B*
1.1266e-3
RAAN
331.1027°
Arg perigee
266.6050°
Mean anomaly
93.4690°
Rev number
9,799

§ Raw data

STARLINK-11443 [DTC]1 62512U 25004B   26264.46114095  .00146835  00000+0  11266-2 0  99912 62512  43.0001 331.1027 0001112 266.6050  93.4690 15.70863567 97996

JSON: /api/v1/satellites/62512 · /tle

For live sub-satellite position, see the globe view (requires WebGL).

§ Visibility from observer

Set your observer location to see the next 7 days of passes ≥ 10°. The values pass through the URL so the page stays shareable.

No JS? Fill the form by hand. The geolocation button needs JavaScript.